Multibeam Report for CV1202


Ship Name: Celtic Voyager
Chief Scientist: Sheehan, Kevin
Source Organization: Geological Survey of Ireland (GSI)
Start Date: 2012-02-01
End Date: 2012-02-28


View ISO Metadata

Visit the full NCEI Bathymetry Viewer


Multibeam Bathymetry

Cruise Details

Project: INFOMAR
Instrument: Simrad EM3002

Data Quality

Number of Files: 578
Number of Records: 11302391
BATHYMETRY DATA Quantity Percentage
Number of Beams 5741442670 100%
Number of Good Beams 5736986789 99.92%
Number of Zero Beams 4455881 0.08%
Number of Flagged Beams 0 0%

Navigation Totals

Total Time: 453.2377 hours
Total Track Length: 6043.1381 km
Average Speed: 13.333 km/hr (7.1992 knots)

Cruise Bounds

Northern Extent: 53.56492
Southern Extent: 52.126564
Western Extent: -6.316209
Eastern Extent: -5.624323

Limits

Minimum Sonar Depth 0 Maximum Sonar Depth 5.91
Minimum Altitude 2.93 Maximum Altitude 113.35
Minimum Depth 4.01 Maximum Depth 126.17

File Information

Full Resolution Bathymetry as collected (raw): 576

Files File Size Description
0001_20120710_055326_celticvoyager.all.mb56.gz 839.39MB Simrad multibeam vendor format
0002_20120710_081856_celticvoyager.all.mb56.gz 799.82MB Simrad multibeam vendor format
0003_20120710_103622_celticvoyager.all.mb56.gz 781.76MB Simrad multibeam vendor format
0004_20120710_134638_celticvoyager.all.mb56.gz 781.47MB Simrad multibeam vendor format
0005_20120710_160021_celticvoyager.all.mb56.gz 845.10MB Simrad multibeam vendor format
0006_20120710_182338_celticvoyager.all.mb56.gz 382.48MB Simrad multibeam vendor format
0007_20120710_192951_celticvoyager.all.mb56.gz 37.09MB Simrad multibeam vendor format
0008_20120710_193959_celticvoyager.all.mb56.gz 414.81MB Simrad multibeam vendor format
0009_20120710_205708_celticvoyager.all.mb56.gz 792.69MB Simrad multibeam vendor format
0010_20120710_231656_celticvoyager.all.mb56.gz 811.47MB Simrad multibeam vendor format
0011_20120711_013737_celticvoyager.all.mb56.gz 839.01MB Simrad multibeam vendor format
0012_20120711_040129_celticvoyager.all.mb56.gz 776.74MB Simrad multibeam vendor format
0013_20120711_061728_celticvoyager.all.mb56.gz 834.24MB Simrad multibeam vendor format
0014_20120711_084314_celticvoyager.all.mb56.gz 364.53MB Simrad multibeam vendor format
0015_20120711_100516_celticvoyager.all.mb56.gz 465.77MB Simrad multibeam vendor format
0016_20120711_113209_celticvoyager.all.mb56.gz 745.27MB Simrad multibeam vendor format
0017_20120711_134048_celticvoyager.all.mb56.gz 782.92MB Simrad multibeam vendor format
0018_20120711_155354_celticvoyager.all.mb56.gz 847.09MB Simrad multibeam vendor format
0019_20120711_181710_celticvoyager.all.mb56.gz 754.87MB Simrad multibeam vendor format
0020_20120711_202539_celticvoyager.all.mb56.gz 827.44MB Simrad multibeam vendor format
0021_20120711_224203_celticvoyager.all.mb56.gz 919.80MB Simrad multibeam vendor format
0022_20120712_011115_celticvoyager.all.mb56.gz 835.68MB Simrad multibeam vendor format
0023_20120712_032855_celticvoyager.all.mb56.gz 763.28MB Simrad multibeam vendor format
0024_20120712_053216_celticvoyager.all.mb56.gz 882.40MB Simrad multibeam vendor format
0025_20120712_075415_celticvoyager.all.mb56.gz 371.09MB Simrad multibeam vendor format
0026_20120712_090348_celticvoyager.all.mb56.gz 630.17MB Simrad multibeam vendor format
0027_20120712_102002_celticvoyager.all.mb56.gz 577.06MB Simrad multibeam vendor format
0028_20120712_121540_celticvoyager.all.mb56.gz 494.06MB Simrad multibeam vendor format
0029_20120712_134109_celticvoyager.all.mb56.gz 869.47MB Simrad multibeam vendor format
0030_20120712_160812_celticvoyager.all.mb56.gz 947.58MB Simrad multibeam vendor format
0031_20120712_183915_celticvoyager.all.mb56.gz 980.67MB Simrad multibeam vendor format
0032_20120712_211433_celticvoyager.all.mb56.gz 1187.45MB Simrad multibeam vendor format
0033_20120713_001959_celticvoyager.all.mb56.gz 902.70MB Simrad multibeam vendor format
0034_20120713_024010_celticvoyager.all.mb56.gz 830.76MB Simrad multibeam vendor format
0035_20120713_044846_celticvoyager.all.mb56.gz 793.73MB Simrad multibeam vendor format
0036_20120713_064623_celticvoyager.all.mb56.gz 873.27MB Simrad multibeam vendor format
0037_20120713_085243_celticvoyager.all.mb56.gz 137.78MB Simrad multibeam vendor format
0038_20120713_091513_celticvoyager.all.mb56.gz 100.09MB Simrad multibeam vendor format
0039_20120713_093132_celticvoyager.all.mb56.gz 79.77MB Simrad multibeam vendor format
0040_20120713_094645_celticvoyager.all.mb56.gz 66.07MB Simrad multibeam vendor format
0041_20120713_095750_celticvoyager.all.mb56.gz 64.88MB Simrad multibeam vendor format
0042_20120713_100823_celticvoyager.all.mb56.gz 57.60MB Simrad multibeam vendor format
0043_20120713_101751_celticvoyager.all.mb56.gz 58.77MB Simrad multibeam vendor format
0044_20120713_102557_celticvoyager.all.mb56.gz 48.17MB Simrad multibeam vendor format
0045_20120713_103512_celticvoyager.all.mb56.gz 47.15MB Simrad multibeam vendor format
0046_20120713_104150_celticvoyager.all.mb56.gz 33.79MB Simrad multibeam vendor format
0047_20120713_104853_celticvoyager.all.mb56.gz 31.27MB Simrad multibeam vendor format
0049_20120713_145049_celticvoyager.all.mb56.gz 618.53MB Simrad multibeam vendor format
0050_20120713_161646_celticvoyager.all.mb56.gz 1209.52MB Simrad multibeam vendor format
0051_20120713_190226_celticvoyager.all.mb56.gz 602.10MB Simrad multibeam vendor format
0052_20120713_203854_celticvoyager.all.mb56.gz 1256.41MB Simrad multibeam vendor format
0053_20120713_232022_celticvoyager.all.mb56.gz 611.54MB Simrad multibeam vendor format
0054_20120714_004155_celticvoyager.all.mb56.gz 558.61MB Simrad multibeam vendor format
0055_20120714_134900_celticvoyager.all.mb56.gz 425.69MB Simrad multibeam vendor format
0056_20120714_151124_celticvoyager.all.mb56.gz 203.76MB Simrad multibeam vendor format
0057_20120714_171847_celticvoyager.all.mb56.gz 454.78MB Simrad multibeam vendor format
0058_20120714_193045_celticvoyager.all.mb56.gz 375.29MB Simrad multibeam vendor format
0059_20120714_213010_celticvoyager.all.mb56.gz 437.08MB Simrad multibeam vendor format
0060_20120714_234744_celticvoyager.all.mb56.gz 420.15MB Simrad multibeam vendor format
0061_20120715_020133_celticvoyager.all.mb56.gz 443.97MB Simrad multibeam vendor format
0062_20120715_042352_celticvoyager.all.mb56.gz 376.25MB Simrad multibeam vendor format
0063_20120715_063438_celticvoyager.all.mb56.gz 467.33MB Simrad multibeam vendor format
0064_20120715_091505_celticvoyager.all.mb56.gz 372.84MB Simrad multibeam vendor format
0065_20120715_112656_celticvoyager.all.mb56.gz 434.10MB Simrad multibeam vendor format
0066_20120715_135104_celticvoyager.all.mb56.gz 342.15MB Simrad multibeam vendor format
0067_20120715_154141_celticvoyager.all.mb56.gz 233.98MB Simrad multibeam vendor format
0068_20120715_165041_celticvoyager.all.mb56.gz 591.24MB Simrad multibeam vendor format
0069_20120715_192203_celticvoyager.all.mb56.gz 412.14MB Simrad multibeam vendor format
0070_20120715_211714_celticvoyager.all.mb56.gz 557.85MB Simrad multibeam vendor format
0071_20120715_235050_celticvoyager.all.mb56.gz 516.42MB Simrad multibeam vendor format
0072_20120716_021425_celticvoyager.all.mb56.gz 861.99MB Simrad multibeam vendor format
0073_20120716_061153_celticvoyager.all.mb56.gz 390.13MB Simrad multibeam vendor format
0074_20120716_081003_celticvoyager.all.mb56.gz 401.84MB Simrad multibeam vendor format
0075_20120716_212047_celticvoyager.all.mb56.gz 175.57MB Simrad multibeam vendor format
0076_20120716_221309_celticvoyager.all.mb56.gz 511.49MB Simrad multibeam vendor format
0077_20120717_003900_celticvoyager.all.mb56.gz 698.82MB Simrad multibeam vendor format
0078_20120717_040221_celticvoyager.all.mb56.gz 410.36MB Simrad multibeam vendor format
0079_20120717_061341_celticvoyager.all.mb56.gz 581.27MB Simrad multibeam vendor format
0080_20120717_085716_celticvoyager.all.mb56.gz 377.14MB Simrad multibeam vendor format
0081_20120717_110058_celticvoyager.all.mb56.gz 595.73MB Simrad multibeam vendor format
0082_20120717_142014_celticvoyager.all.mb56.gz 413.40MB Simrad multibeam vendor format
0083_20120717_170355_celticvoyager.all.mb56.gz 646.63MB Simrad multibeam vendor format
0084_20120717_191259_celticvoyager.all.mb56.gz 173.37MB Simrad multibeam vendor format
0085_20120717_201423_celticvoyager.all.mb56.gz 742.99MB Simrad multibeam vendor format
0086_20120717_213108_celticvoyager.all.mb56.gz 893.57MB Simrad multibeam vendor format
0087_20120717_230401_celticvoyager.all.mb56.gz 870.50MB Simrad multibeam vendor format
0088_20120718_003142_celticvoyager.all.mb56.gz 843.99MB Simrad multibeam vendor format
0089_20120718_020058_celticvoyager.all.mb56.gz 637.93MB Simrad multibeam vendor format
0090_20120718_033039_celticvoyager.all.mb56.gz 904.52MB Simrad multibeam vendor format
0091_20120718_045926_celticvoyager.all.mb56.gz 697.39MB Simrad multibeam vendor format
0092_20120718_060844_celticvoyager.all.mb56.gz 796.68MB Simrad multibeam vendor format
0093_20120718_072548_celticvoyager.all.mb56.gz 664.89MB Simrad multibeam vendor format
0094_20120718_083030_celticvoyager.all.mb56.gz 751.38MB Simrad multibeam vendor format
0095_20120718_105204_celticvoyager.all.mb56.gz 476.40MB Simrad multibeam vendor format
0096_20120718_143710_celticvoyager.all.mb56.gz 393.23MB Simrad multibeam vendor format
0097_20120718_164157_celticvoyager.all.mb56.gz 758.36MB Simrad multibeam vendor format
0098_20120718_202417_celticvoyager.all.mb56.gz 386.07MB Simrad multibeam vendor format
0099_20120718_221212_celticvoyager.all.mb56.gz 441.31MB Simrad multibeam vendor format
0100_20120719_003541_celticvoyager.all.mb56.gz 464.47MB Simrad multibeam vendor format
0101_20120719_030936_celticvoyager.all.mb56.gz 473.75MB Simrad multibeam vendor format
0102_20120719_054808_celticvoyager.all.mb56.gz 336.28MB Simrad multibeam vendor format
0103_20120719_074035_celticvoyager.all.mb56.gz 466.71MB Simrad multibeam vendor format
0104_20120719_100554_celticvoyager.all.mb56.gz 232.96MB Simrad multibeam vendor format
0105_20120719_112026_celticvoyager.all.mb56.gz 235.24MB Simrad multibeam vendor format
0106_20120719_124032_celticvoyager.all.mb56.gz 189.13MB Simrad multibeam vendor format
0107_20120719_132548_celticvoyager.all.mb56.gz 117.24MB Simrad multibeam vendor format
0108_20120719_142551_celticvoyager.all.mb56.gz 386.96MB Simrad multibeam vendor format
0109_20120719_155207_celticvoyager.all.mb56.gz 551.31MB Simrad multibeam vendor format
0110_20120719_180545_celticvoyager.all.mb56.gz 536.56MB Simrad multibeam vendor format
0111_20120719_200156_celticvoyager.all.mb56.gz 613.75MB Simrad multibeam vendor format
0112_20120719_222819_celticvoyager.all.mb56.gz 588.69MB Simrad multibeam vendor format
0113_20120720_003413_celticvoyager.all.mb56.gz 528.42MB Simrad multibeam vendor format
0114_20120720_023805_celticvoyager.all.mb56.gz 667.28MB Simrad multibeam vendor format
0115_20120720_050358_celticvoyager.all.mb56.gz 567.45MB Simrad multibeam vendor format
0116_20120720_071742_celticvoyager.all.mb56.gz 552.65MB Simrad multibeam vendor format
0117_20120720_091934_celticvoyager.all.mb56.gz 517.50MB Simrad multibeam vendor format
0118_20120720_113011_celticvoyager.all.mb56.gz 549.10MB Simrad multibeam vendor format
0119_20120720_134134_celticvoyager.all.mb56.gz 480.03MB Simrad multibeam vendor format
0120_20120720_155427_celticvoyager.all.mb56.gz 614.46MB Simrad multibeam vendor format
0121_20120720_181434_celticvoyager.all.mb56.gz 611.34MB Simrad multibeam vendor format
0122_20120720_204947_celticvoyager.all.mb56.gz 587.72MB Simrad multibeam vendor format
0123_20120720_230037_celticvoyager.all.mb56.gz 457.15MB Simrad multibeam vendor format
0124_20120721_010011_celticvoyager.all.mb56.gz 706.04MB Simrad multibeam vendor format
0125_20120721_035230_celticvoyager.all.mb56.gz 501.04MB Simrad multibeam vendor format
0126_20120721_092418_celticvoyager.all.mb56.gz 186.45MB Simrad multibeam vendor format
0127_20120721_115058_celticvoyager.all.mb56.gz 107.54MB Simrad multibeam vendor format
0128_20120721_152912_celticvoyager.all.mb56.gz 775.43MB Simrad multibeam vendor format
0129_20120721_173233_celticvoyager.all.mb56.gz 911.47MB Simrad multibeam vendor format
0130_20120721_202134_celticvoyager.all.mb56.gz 889.03MB Simrad multibeam vendor format
0131_20120721_214921_celticvoyager.all.mb56.gz 1024.87MB Simrad multibeam vendor format
0132_20120721_232623_celticvoyager.all.mb56.gz 988.74MB Simrad multibeam vendor format
0133_20120722_010016_celticvoyager.all.mb56.gz 845.83MB Simrad multibeam vendor format
0134_20120722_022246_celticvoyager.all.mb56.gz 985.55MB Simrad multibeam vendor format
0135_20120722_035903_celticvoyager.all.mb56.gz 1223.67MB Simrad multibeam vendor format
0136_20120722_055706_celticvoyager.all.mb56.gz 846.82MB Simrad multibeam vendor format
0137_20120722_071641_celticvoyager.all.mb56.gz 1816.57MB Simrad multibeam vendor format
0138_20120722_100134_celticvoyager.all.mb56.gz 813.49MB Simrad multibeam vendor format
0139_20120724_110926_celticvoyager.all.mb56.gz 449.99MB Simrad multibeam vendor format
0140_20120724_120515_celticvoyager.all.mb56.gz 653.81MB Simrad multibeam vendor format
0141_20120724_132720_celticvoyager.all.mb56.gz 719.59MB Simrad multibeam vendor format
0142_20120724_151214_celticvoyager.all.mb56.gz 306.95MB Simrad multibeam vendor format
0143_20120724_165243_celticvoyager.all.mb56.gz 620.48MB Simrad multibeam vendor format
0144_20120724_175754_celticvoyager.all.mb56.gz 540.36MB Simrad multibeam vendor format
0145_20120724_185245_celticvoyager.all.mb56.gz 541.90MB Simrad multibeam vendor format
0146_20120724_194243_celticvoyager.all.mb56.gz 524.74MB Simrad multibeam vendor format
0147_20120724_203033_celticvoyager.all.mb56.gz 511.15MB Simrad multibeam vendor format
0148_20120724_211803_celticvoyager.all.mb56.gz 612.97MB Simrad multibeam vendor format
0149_20120724_221250_celticvoyager.all.mb56.gz 510.97MB Simrad multibeam vendor format
0150_20120724_230038_celticvoyager.all.mb56.gz 591.51MB Simrad multibeam vendor format
0151_20120724_235501_celticvoyager.all.mb56.gz 513.72MB Simrad multibeam vendor format
0152_20120725_004354_celticvoyager.all.mb56.gz 529.25MB Simrad multibeam vendor format
0153_20120725_013257_celticvoyager.all.mb56.gz 518.14MB Simrad multibeam vendor format
0154_20120725_022124_celticvoyager.all.mb56.gz 463.79MB Simrad multibeam vendor format
0155_20120725_030932_celticvoyager.all.mb56.gz 598.71MB Simrad multibeam vendor format
0156_20120725_041047_celticvoyager.all.mb56.gz 478.03MB Simrad multibeam vendor format
0157_20120725_050431_celticvoyager.all.mb56.gz 599.66MB Simrad multibeam vendor format
0158_20120725_060327_celticvoyager.all.mb56.gz 535.42MB Simrad multibeam vendor format
0159_20120725_065907_celticvoyager.all.mb56.gz 504.95MB Simrad multibeam vendor format
0160_20120725_074621_celticvoyager.all.mb56.gz 495.19MB Simrad multibeam vendor format
0161_20120725_083153_celticvoyager.all.mb56.gz 457.74MB Simrad multibeam vendor format
0162_20120725_091521_celticvoyager.all.mb56.gz 543.83MB Simrad multibeam vendor format
0163_20120725_100531_celticvoyager.all.mb56.gz 480.48MB Simrad multibeam vendor format
0164_20120725_105120_celticvoyager.all.mb56.gz 598.23MB Simrad multibeam vendor format
0165_20120725_114537_celticvoyager.all.mb56.gz 494.19MB Simrad multibeam vendor format
0166_20120725_123224_celticvoyager.all.mb56.gz 518.93MB Simrad multibeam vendor format
0167_20120725_132022_celticvoyager.all.mb56.gz 479.46MB Simrad multibeam vendor format
0168_20120725_140547_celticvoyager.all.mb56.gz 456.65MB Simrad multibeam vendor format
0169_20120725_144913_celticvoyager.all.mb56.gz 515.02MB Simrad multibeam vendor format
0170_20120725_154107_celticvoyager.all.mb56.gz 490.90MB Simrad multibeam vendor format
0171_20120725_162929_celticvoyager.all.mb56.gz 570.74MB Simrad multibeam vendor format
0172_20120725_172413_celticvoyager.all.mb56.gz 485.48MB Simrad multibeam vendor format
0173_20120725_181258_celticvoyager.all.mb56.gz 516.53MB Simrad multibeam vendor format
0174_20120725_190428_celticvoyager.all.mb56.gz 457.73MB Simrad multibeam vendor format
0175_20120725_195418_celticvoyager.all.mb56.gz 464.94MB Simrad multibeam vendor format
0176_20120725_203742_celticvoyager.all.mb56.gz 456.37MB Simrad multibeam vendor format
0177_20120725_211920_celticvoyager.all.mb56.gz 426.86MB Simrad multibeam vendor format
0178_20120725_215939_celticvoyager.all.mb56.gz 518.85MB Simrad multibeam vendor format
0179_20120725_224714_celticvoyager.all.mb56.gz 445.63MB Simrad multibeam vendor format
0180_20120725_233022_celticvoyager.all.mb56.gz 531.48MB Simrad multibeam vendor format
0181_20120726_001833_celticvoyager.all.mb56.gz 431.35MB Simrad multibeam vendor format
0182_20120726_005946_celticvoyager.all.mb56.gz 467.43MB Simrad multibeam vendor format
0183_20120726_014230_celticvoyager.all.mb56.gz 449.25MB Simrad multibeam vendor format
0184_20120726_022521_celticvoyager.all.mb56.gz 417.94MB Simrad multibeam vendor format
0185_20120726_030807_celticvoyager.all.mb56.gz 483.90MB Simrad multibeam vendor format
0186_20120726_035611_celticvoyager.all.mb56.gz 439.66MB Simrad multibeam vendor format
0187_20120726_044104_celticvoyager.all.mb56.gz 540.43MB Simrad multibeam vendor format
0188_20120726_053354_celticvoyager.all.mb56.gz 429.31MB Simrad multibeam vendor format
0189_20120726_061708_celticvoyager.all.mb56.gz 514.04MB Simrad multibeam vendor format
0190_20120726_070515_celticvoyager.all.mb56.gz 419.84MB Simrad multibeam vendor format
0191_20120726_074442_celticvoyager.all.mb56.gz 438.69MB Simrad multibeam vendor format
0192_20120726_082645_celticvoyager.all.mb56.gz 423.55MB Simrad multibeam vendor format
0193_20120726_090739_celticvoyager.all.mb56.gz 410.50MB Simrad multibeam vendor format
0194_20120726_094618_celticvoyager.all.mb56.gz 470.99MB Simrad multibeam vendor format
0195_20120726_103005_celticvoyager.all.mb56.gz 405.70MB Simrad multibeam vendor format
0196_20120726_110912_celticvoyager.all.mb56.gz 514.38MB Simrad multibeam vendor format
0197_20120726_115653_celticvoyager.all.mb56.gz 385.43MB Simrad multibeam vendor format
0198_20120726_123547_celticvoyager.all.mb56.gz 485.46MB Simrad multibeam vendor format
0199_20120726_132049_celticvoyager.all.mb56.gz 391.43MB Simrad multibeam vendor format
0200_20120726_140003_celticvoyager.all.mb56.gz 402.07MB Simrad multibeam vendor format
0201_20120726_143925_celticvoyager.all.mb56.gz 327.24MB Simrad multibeam vendor format
0202_20120726_152023_celticvoyager.all.mb56.gz 353.02MB Simrad multibeam vendor format
0203_20120726_155839_celticvoyager.all.mb56.gz 355.49MB Simrad multibeam vendor format
0204_20120726_163642_celticvoyager.all.mb56.gz 331.65MB Simrad multibeam vendor format
0205_20120726_171252_celticvoyager.all.mb56.gz 387.51MB Simrad multibeam vendor format
0206_20120726_175326_celticvoyager.all.mb56.gz 311.53MB Simrad multibeam vendor format
0207_20120726_182920_celticvoyager.all.mb56.gz 360.39MB Simrad multibeam vendor format
0208_20120726_190635_celticvoyager.all.mb56.gz 304.49MB Simrad multibeam vendor format
0209_20120726_193838_celticvoyager.all.mb56.gz 311.34MB Simrad multibeam vendor format
0210_20120726_201039_celticvoyager.all.mb56.gz 292.74MB Simrad multibeam vendor format
0211_20120726_204204_celticvoyager.all.mb56.gz 277.00MB Simrad multibeam vendor format
0212_20120726_211141_celticvoyager.all.mb56.gz 256.68MB Simrad multibeam vendor format
0213_20120726_214409.all.mb56.gz 242.93MB Simrad multibeam vendor format
0214_20120726_220935.all.mb56.gz 240.69MB Simrad multibeam vendor format
0215_20120726_223500.all.mb56.gz 222.88MB Simrad multibeam vendor format
0216_20120726_225928.all.mb56.gz 244.45MB Simrad multibeam vendor format
0217_20120726_232434.all.mb56.gz 211.25MB Simrad multibeam vendor format
0218_20120726_234745.all.mb56.gz 119.89MB Simrad multibeam vendor format
0219_20120727_000046.all.mb56.gz 83.36MB Simrad multibeam vendor format
0220_20120727_001147.all.mb56.gz 115.29MB Simrad multibeam vendor format
0221_20120727_002409.all.mb56.gz 85.16MB Simrad multibeam vendor format
0222_20120727_003519.all.mb56.gz 114.93MB Simrad multibeam vendor format
0223_20120727_004746.all.mb56.gz 85.16MB Simrad multibeam vendor format
0224_20120727_005817.all.mb56.gz 114.68MB Simrad multibeam vendor format
0225_20120727_011019.all.mb56.gz 86.35MB Simrad multibeam vendor format
0226_20120727_012031.all.mb56.gz 112.29MB Simrad multibeam vendor format
0227_20120727_013218.all.mb56.gz 84.78MB Simrad multibeam vendor format
0228_20120727_014203.all.mb56.gz 113.40MB Simrad multibeam vendor format
0229_20120727_015405.all.mb56.gz 86.94MB Simrad multibeam vendor format
0230_20120727_020448.all.mb56.gz 98.84MB Simrad multibeam vendor format
0231_20120727_021534.all.mb56.gz 78.97MB Simrad multibeam vendor format
0232_20120727_022531.all.mb56.gz 98.40MB Simrad multibeam vendor format
0233_20120727_023646.all.mb56.gz 82.21MB Simrad multibeam vendor format
0234_20120727_024723.all.mb56.gz 79.45MB Simrad multibeam vendor format
0235_20120727_025632.all.mb56.gz 65.05MB Simrad multibeam vendor format
0236_20120727_030739.all.mb56.gz 65.69MB Simrad multibeam vendor format
0237_20120727_031712.all.mb56.gz 56.94MB Simrad multibeam vendor format
0238_20120727_032703.all.mb56.gz 57.60MB Simrad multibeam vendor format
0239_20120727_033545.all.mb56.gz 50.99MB Simrad multibeam vendor format
0240_20120727_034436.all.mb56.gz 47.71MB Simrad multibeam vendor format
0241_20120727_035231.all.mb56.gz 42.49MB Simrad multibeam vendor format
0242_20120727_040040.all.mb56.gz 39.19MB Simrad multibeam vendor format
0243_20120727_040823.all.mb56.gz 34.60MB Simrad multibeam vendor format
0244_20120727_041512.all.mb56.gz 27.93MB Simrad multibeam vendor format
0245_20120727_042137.all.mb56.gz 25.43MB Simrad multibeam vendor format
0246_20120727_042751.all.mb56.gz 22.43MB Simrad multibeam vendor format
0247_20120727_043420.all.mb56.gz 13.88MB Simrad multibeam vendor format
0248_20120727_053327.all.mb56.gz 369.17MB Simrad multibeam vendor format
0249_20120727_064603.all.mb56.gz 491.23MB Simrad multibeam vendor format
0250_20120727_073126.all.mb56.gz 921.36MB Simrad multibeam vendor format
0251_20120727_085256.all.mb56.gz 864.43MB Simrad multibeam vendor format
0252_20120727_101017.all.mb56.gz 830.09MB Simrad multibeam vendor format
0253_20120727_112447.all.mb56.gz 977.34MB Simrad multibeam vendor format
0254_20120727_125106.all.mb56.gz 842.38MB Simrad multibeam vendor format
0255_20120727_140623.all.mb56.gz 919.77MB Simrad multibeam vendor format
0256_20120727_153017.all.mb56.gz 900.97MB Simrad multibeam vendor format
0257_20120727_165237.all.mb56.gz 866.37MB Simrad multibeam vendor format
0258_20120727_181144.all.mb56.gz 997.50MB Simrad multibeam vendor format
0259_20120727_194030.all.mb56.gz 844.96MB Simrad multibeam vendor format
0260_20120727_205656.all.mb56.gz 659.45MB Simrad multibeam vendor format
0261_20120727_215444.all.mb56.gz 671.03MB Simrad multibeam vendor format
0262_20120727_225540.all.mb56.gz 857.95MB Simrad multibeam vendor format
0263_20120728_001214.all.mb56.gz 996.90MB Simrad multibeam vendor format
0264_20120728_014006.all.mb56.gz 873.44MB Simrad multibeam vendor format
0265_20120728_025822.all.mb56.gz 956.85MB Simrad multibeam vendor format
0266_20120728_042536.all.mb56.gz 961.38MB Simrad multibeam vendor format
0267_20120728_055306.all.mb56.gz 928.34MB Simrad multibeam vendor format
0268_20120728_071723.all.mb56.gz 1003.85MB Simrad multibeam vendor format
0269_20120728_084903.all.mb56.gz 236.85MB Simrad multibeam vendor format
0270_20120728_091306.all.mb56.gz 268.90MB Simrad multibeam vendor format
0271_20120728_094216.all.mb56.gz 448.49MB Simrad multibeam vendor format
0272_20120728_105053.all.mb56.gz 472.33MB Simrad multibeam vendor format
0273_20120728_113441.all.mb56.gz 882.87MB Simrad multibeam vendor format
0274_20120728_125332.all.mb56.gz 1028.16MB Simrad multibeam vendor format
0275_20120728_142358.all.mb56.gz 1011.75MB Simrad multibeam vendor format
0276_20120728_154507.all.mb56.gz 1052.51MB Simrad multibeam vendor format
0277_20120728_170902.all.mb56.gz 1076.30MB Simrad multibeam vendor format
0278_20120728_183522.all.mb56.gz 1032.16MB Simrad multibeam vendor format
0281_20120728_230029.all.mb56.gz 1009.88MB Simrad multibeam vendor format
0282_20120729_002047.all.mb56.gz 1080.03MB Simrad multibeam vendor format
0283_20120729_014547.all.mb56.gz 1045.65MB Simrad multibeam vendor format
0284_20120729_030936.all.mb56.gz 1163.66MB Simrad multibeam vendor format
0285_20120729_044244.all.mb56.gz 1100.66MB Simrad multibeam vendor format
0286_20120729_061205.all.mb56.gz 1057.72MB Simrad multibeam vendor format
0287_20120729_073752.all.mb56.gz 1185.75MB Simrad multibeam vendor format
0288_20120729_091353.all.mb56.gz 662.32MB Simrad multibeam vendor format
0289_20120729_103428.all.mb56.gz 468.01MB Simrad multibeam vendor format
0290_20120729_111333.all.mb56.gz 1059.82MB Simrad multibeam vendor format
0291_20120729_123724.all.mb56.gz 1074.77MB Simrad multibeam vendor format
0292_20120729_140218.all.mb56.gz 1065.37MB Simrad multibeam vendor format
0293_20120729_152828.all.mb56.gz 1243.13MB Simrad multibeam vendor format
0294_20120729_170719.all.mb56.gz 1097.91MB Simrad multibeam vendor format
0295_20120729_183542.all.mb56.gz 1043.64MB Simrad multibeam vendor format
0296_20120729_195933.all.mb56.gz 1198.00MB Simrad multibeam vendor format
0297_20120729_213429.all.mb56.gz 1047.09MB Simrad multibeam vendor format
0298_20120729_230612.all.mb56.gz 1055.76MB Simrad multibeam vendor format
0299_20120730_003647.all.mb56.gz 1031.03MB Simrad multibeam vendor format
0300_20120730_020522.all.mb56.gz 1013.36MB Simrad multibeam vendor format
0301_20120730_033413.all.mb56.gz 1138.33MB Simrad multibeam vendor format
0302_20120730_051314.all.mb56.gz 1025.46MB Simrad multibeam vendor format
0303_20120730_064346.all.mb56.gz 993.71MB Simrad multibeam vendor format
0304_20120730_081133.all.mb56.gz 342.11MB Simrad multibeam vendor format
0305_20120730_090627.all.mb56.gz 218.95MB Simrad multibeam vendor format
0306_20120730_094145.all.mb56.gz 568.38MB Simrad multibeam vendor format
0307_20120730_103138.all.mb56.gz 949.15MB Simrad multibeam vendor format
0308_20120730_115436.all.mb56.gz 460.31MB Simrad multibeam vendor format
0309_20120730_125707_celticvoyager.all.mb56.gz 222.65MB Simrad multibeam vendor format
0310_20120730_133050_celticvoyager.all.mb56.gz 230.66MB Simrad multibeam vendor format
0311_20120730_140505_celticvoyager.all.mb56.gz 218.31MB Simrad multibeam vendor format
0312_20120730_143904_celticvoyager.all.mb56.gz 226.12MB Simrad multibeam vendor format
0313_20120730_151512_celticvoyager.all.mb56.gz 271.80MB Simrad multibeam vendor format
0314_20120730_154702_celticvoyager.all.mb56.gz 342.18MB Simrad multibeam vendor format
0315_20120730_162646_celticvoyager.all.mb56.gz 300.08MB Simrad multibeam vendor format
0316_20120730_165309_celticvoyager.all.mb56.gz 329.17MB Simrad multibeam vendor format
0317_20120730_172351_celticvoyager.all.mb56.gz 265.48MB Simrad multibeam vendor format
0318_20120730_175344_celticvoyager.all.mb56.gz 276.26MB Simrad multibeam vendor format
0319_20120730_182530_celticvoyager.all.mb56.gz 221.48MB Simrad multibeam vendor format
0320_20120730_192626_celticvoyager.all.mb56.gz 215.10MB Simrad multibeam vendor format
0321_20120730_195824_celticvoyager.all.mb56.gz 216.80MB Simrad multibeam vendor format
0322_20120730_203034_celticvoyager.all.mb56.gz 225.46MB Simrad multibeam vendor format
0323_20120730_210345_celticvoyager.all.mb56.gz 240.75MB Simrad multibeam vendor format
0324_20120730_213925_celticvoyager.all.mb56.gz 213.81MB Simrad multibeam vendor format
0325_20120730_221211_celticvoyager.all.mb56.gz 241.64MB Simrad multibeam vendor format
0326_20120730_224902_celticvoyager.all.mb56.gz 218.55MB Simrad multibeam vendor format
0327_20120730_232436_celticvoyager.all.mb56.gz 208.84MB Simrad multibeam vendor format
0328_20120730_235700_celticvoyager.all.mb56.gz 223.41MB Simrad multibeam vendor format
0329_20120731_003048_celticvoyager.all.mb56.gz 209.53MB Simrad multibeam vendor format
0330_20120731_010131_celticvoyager.all.mb56.gz 198.42MB Simrad multibeam vendor format
0331_20120731_013150_celticvoyager.all.mb56.gz 195.22MB Simrad multibeam vendor format
0332_20120731_020034_celticvoyager.all.mb56.gz 188.18MB Simrad multibeam vendor format
0333_20120731_022841_celticvoyager.all.mb56.gz 174.29MB Simrad multibeam vendor format
0334_20120731_025447_celticvoyager.all.mb56.gz 186.98MB Simrad multibeam vendor format
0336_20120731_033314_celticvoyager.all.mb56.gz 181.41MB Simrad multibeam vendor format
0337_20120731_040300_celticvoyager.all.mb56.gz 188.01MB Simrad multibeam vendor format
0338_20120731_043212_celticvoyager.all.mb56.gz 173.63MB Simrad multibeam vendor format
0339_20120731_050004_celticvoyager.all.mb56.gz 186.08MB Simrad multibeam vendor format
0340_20120731_054004_celticvoyager.all.mb56.gz 389.78MB Simrad multibeam vendor format
0341_20120731_062014_celticvoyager.all.mb56.gz 297.28MB Simrad multibeam vendor format
0342_20120731_065035_celticvoyager.all.mb56.gz 360.43MB Simrad multibeam vendor format
0343_20120731_072521_celticvoyager.all.mb56.gz 304.83MB Simrad multibeam vendor format
0344_20120731_075417_celticvoyager.all.mb56.gz 306.85MB Simrad multibeam vendor format
0345_20120731_082553_celticvoyager.all.mb56.gz 331.89MB Simrad multibeam vendor format
0346_20120731_091510_celticvoyager.all.mb56.gz 131.12MB Simrad multibeam vendor format
0347_20120731_093611_celticvoyager.all.mb56.gz 116.82MB Simrad multibeam vendor format
0348_20120731_095614_celticvoyager.all.mb56.gz 124.76MB Simrad multibeam vendor format
0349_20120731_101509_celticvoyager.all.mb56.gz 108.54MB Simrad multibeam vendor format
0350_20120731_103341_celticvoyager.all.mb56.gz 288.64MB Simrad multibeam vendor format
0351_20120731_110153_celticvoyager.all.mb56.gz 367.58MB Simrad multibeam vendor format
0352_20120731_113541_celticvoyager.all.mb56.gz 286.63MB Simrad multibeam vendor format
0353_20120731_120454_celticvoyager.all.mb56.gz 310.43MB Simrad multibeam vendor format
0354_20120731_123439_celticvoyager.all.mb56.gz 282.43MB Simrad multibeam vendor format
0355_20120731_130201_celticvoyager.all.mb56.gz 64.04MB Simrad multibeam vendor format
0356_20120731_131033_celticvoyager.all.mb56.gz 176.21MB Simrad multibeam vendor format
0357_20120731_132912_celticvoyager.all.mb56.gz 185.74MB Simrad multibeam vendor format
0358_20120731_135103_celticvoyager.all.mb56.gz 168.52MB Simrad multibeam vendor format
0359_20120731_140746_celticvoyager.all.mb56.gz 164.35MB Simrad multibeam vendor format
0360_20120731_142324_celticvoyager.all.mb56.gz 140.05MB Simrad multibeam vendor format
0361_20120731_143837_celticvoyager.all.mb56.gz 88.79MB Simrad multibeam vendor format
0362_20120731_145216_celticvoyager.all.mb56.gz 62.46MB Simrad multibeam vendor format
0363_20120731_150037_celticvoyager.all.mb56.gz 49.98MB Simrad multibeam vendor format
0364_20120731_151044_celticvoyager.all.mb56.gz 37.75MB Simrad multibeam vendor format
0365_20120731_152026_celticvoyager.all.mb56.gz 98.95MB Simrad multibeam vendor format
0366_20120731_153445_celticvoyager.all.mb56.gz 131.92MB Simrad multibeam vendor format
0367_20120731_154853_celticvoyager.all.mb56.gz 132.82MB Simrad multibeam vendor format
0368_20120731_160243_celticvoyager.all.mb56.gz 249.94MB Simrad multibeam vendor format
0369_INF_20120731_163347_celticvoyager.all.mb56.gz 47.27MB Simrad multibeam vendor format
0370_INF_20120731_164626_celticvoyager.all.mb56.gz 49.30MB Simrad multibeam vendor format
0371_20120801_192000_celticvoyager.all.mb56.gz 40.13MB Simrad multibeam vendor format
0372_20120801_193437_celticvoyager.all.mb56.gz 590.50MB Simrad multibeam vendor format
0373_20120801_210629_celticvoyager.all.mb56.gz 411.28MB Simrad multibeam vendor format
0374_20120801_221610_celticvoyager.all.mb56.gz 401.28MB Simrad multibeam vendor format
0375_20120801_230444_celticvoyager.all.mb56.gz 330.88MB Simrad multibeam vendor format
0376_20120801_234358_celticvoyager.all.mb56.gz 326.61MB Simrad multibeam vendor format
0377_20120802_002426_celticvoyager.all.mb56.gz 26.94MB Simrad multibeam vendor format
0378_20120802_003814_celticvoyager.all.mb56.gz 331.98MB Simrad multibeam vendor format
0379_20120802_011707_celticvoyager.all.mb56.gz 297.89MB Simrad multibeam vendor format
0380_20120802_015323_celticvoyager.all.mb56.gz 314.04MB Simrad multibeam vendor format
0381_20120802_023014_celticvoyager.all.mb56.gz 296.03MB Simrad multibeam vendor format
0382_20120802_030723_celticvoyager.all.mb56.gz 337.45MB Simrad multibeam vendor format
0383_20120802_034919_celticvoyager.all.mb56.gz 323.06MB Simrad multibeam vendor format
0384_20120802_042823_celticvoyager.all.mb56.gz 323.63MB Simrad multibeam vendor format
0385_20120802_050629_celticvoyager.all.mb56.gz 330.83MB Simrad multibeam vendor format
0386_20120802_054722_celticvoyager.all.mb56.gz 313.13MB Simrad multibeam vendor format
0387_20120802_062509_celticvoyager.all.mb56.gz 341.93MB Simrad multibeam vendor format
0388_20120802_070505_celticvoyager.all.mb56.gz 310.67MB Simrad multibeam vendor format
0389_20120802_074253_celticvoyager.all.mb56.gz 165.87MB Simrad multibeam vendor format
0390_20120802_084932_celticvoyager.all.mb56.gz 202.67MB Simrad multibeam vendor format
0391_20120802_091354_celticvoyager.all.mb56.gz 314.00MB Simrad multibeam vendor format
0392_20120802_095119_celticvoyager.all.mb56.gz 340.24MB Simrad multibeam vendor format
0393_20120802_103152_celticvoyager.all.mb56.gz 334.55MB Simrad multibeam vendor format
0394_20120802_111041_celticvoyager.all.mb56.gz 330.95MB Simrad multibeam vendor format
0395_20120802_114912_celticvoyager.all.mb56.gz 338.83MB Simrad multibeam vendor format
0396_20120802_122755_celticvoyager.all.mb56.gz 327.07MB Simrad multibeam vendor format
0397_20120802_130537_celticvoyager.all.mb56.gz 334.82MB Simrad multibeam vendor format
0398_20120802_134306_celticvoyager.all.mb56.gz 349.92MB Simrad multibeam vendor format
0399_20120802_142249_celticvoyager.all.mb56.gz 328.79MB Simrad multibeam vendor format
0400_DNP_20120802_150122_celticvoyager.all.mb56.gz 53.57MB Simrad multibeam vendor format
0401_XL_20120802_152154_celticvoyager.all.mb56.gz 247.20MB Simrad multibeam vendor format
0402_XL_20120802_155500_celticvoyager.all.mb56.gz 281.69MB Simrad multibeam vendor format
0403_20120802_162928_celticvoyager.all.mb56.gz 299.20MB Simrad multibeam vendor format
0404_20120802_171018_celticvoyager.all.mb56.gz 363.13MB Simrad multibeam vendor format
0405_20120804_163127_celticvoyager.all.mb56.gz 338.39MB Simrad multibeam vendor format
0406_20120804_170414_celticvoyager.all.mb56.gz 323.55MB Simrad multibeam vendor format
0407_20120804_173744_celticvoyager.all.mb56.gz 165.79MB Simrad multibeam vendor format
0408_20120804_181701_celticvoyager.all.mb56.gz 142.73MB Simrad multibeam vendor format
0409_20120804_183332_celticvoyager.all.mb56.gz 293.29MB Simrad multibeam vendor format
0410_20120804_190208_celticvoyager.all.mb56.gz 259.18MB Simrad multibeam vendor format
0411_20120804_192815_celticvoyager.all.mb56.gz 253.26MB Simrad multibeam vendor format
0412_20120804_195257_celticvoyager.all.mb56.gz 244.84MB Simrad multibeam vendor format
0413_20120804_201744_celticvoyager.all.mb56.gz 198.58MB Simrad multibeam vendor format
0414_20120804_203716_celticvoyager.all.mb56.gz 138.91MB Simrad multibeam vendor format
0415_20120804_205336_celticvoyager.all.mb56.gz 135.51MB Simrad multibeam vendor format
0416_20120804_210824_celticvoyager.all.mb56.gz 76.18MB Simrad multibeam vendor format
0417_20120804_211859_celticvoyager.all.mb56.gz 75.36MB Simrad multibeam vendor format
0418_20120804_212827_celticvoyager.all.mb56.gz 38.01MB Simrad multibeam vendor format
0419_20120804_214630_celticvoyager.all.mb56.gz 352.36MB Simrad multibeam vendor format
0420_20120804_230306_celticvoyager.all.mb56.gz 371.99MB Simrad multibeam vendor format
0421_20120804_233833_celticvoyager.all.mb56.gz 377.57MB Simrad multibeam vendor format
0422_20120805_001444_celticvoyager.all.mb56.gz 366.94MB Simrad multibeam vendor format
0423_20120805_005000_celticvoyager.all.mb56.gz 375.87MB Simrad multibeam vendor format
0424_20120805_012558_celticvoyager.all.mb56.gz 365.15MB Simrad multibeam vendor format
0425_20120805_020148_celticvoyager.all.mb56.gz 406.70MB Simrad multibeam vendor format
0426_20120805_024051_celticvoyager.all.mb56.gz 359.25MB Simrad multibeam vendor format
0427_20120805_031643_celticvoyager.all.mb56.gz 433.55MB Simrad multibeam vendor format
0428_20120805_035855_celticvoyager.all.mb56.gz 385.76MB Simrad multibeam vendor format
0429_20120805_043648_celticvoyager.all.mb56.gz 393.49MB Simrad multibeam vendor format
0430_20120805_051500_celticvoyager.all.mb56.gz 393.78MB Simrad multibeam vendor format
0431_20120805_055214_celticvoyager.all.mb56.gz 396.03MB Simrad multibeam vendor format
0432_20120805_062959_celticvoyager.all.mb56.gz 393.09MB Simrad multibeam vendor format
0433_20120805_070751_celticvoyager.all.mb56.gz 63.13MB Simrad multibeam vendor format
0434_20120805_071704_celticvoyager.all.mb56.gz 324.77MB Simrad multibeam vendor format
0435_20120805_074839_celticvoyager.all.mb56.gz 410.86MB Simrad multibeam vendor format
0436_20120805_082827_celticvoyager.all.mb56.gz 370.89MB Simrad multibeam vendor format
0437_20120805_090519_celticvoyager.all.mb56.gz 463.88MB Simrad multibeam vendor format
0438_20120805_101511_celticvoyager.all.mb56.gz 385.28MB Simrad multibeam vendor format
0439_20120805_111604_celticvoyager.all.mb56.gz 116.11MB Simrad multibeam vendor format
0440_20120805_113210_celticvoyager.all.mb56.gz 85.05MB Simrad multibeam vendor format
0441_20120805_114309_celticvoyager.all.mb56.gz 105.02MB Simrad multibeam vendor format
0442_20120805_115804_celticvoyager.all.mb56.gz 89.59MB Simrad multibeam vendor format
0443_20120805_121152_celticvoyager.all.mb56.gz 56.24MB Simrad multibeam vendor format
0444_20120805_122138_celticvoyager.all.mb56.gz 35.74MB Simrad multibeam vendor format
0445_20120805_122811_celticvoyager.all.mb56.gz 29.48MB Simrad multibeam vendor format
0446_20120805_123449_celticvoyager.all.mb56.gz 14.81MB Simrad multibeam vendor format
0447_20120805_123839_celticvoyager.all.mb56.gz 13.93MB Simrad multibeam vendor format
0448_20120805_124428_celticvoyager.all.mb56.gz 193.64MB Simrad multibeam vendor format
0449_20120805_130859_celticvoyager.all.mb56.gz 143.44MB Simrad multibeam vendor format
0450_20120805_133017_celticvoyager.all.mb56.gz 52.12MB Simrad multibeam vendor format
0451_20120805_133916_celticvoyager.all.mb56.gz 33.47MB Simrad multibeam vendor format
0452_20120805_134701_celticvoyager.all.mb56.gz 221.36MB Simrad multibeam vendor format
0453_20120805_143315_celticvoyager.all.mb56.gz 198.72MB Simrad multibeam vendor format
0453_INF_20120805_150438_celticvoyager.all.mb56.gz 15.68MB Simrad multibeam vendor format
0454_20120805_151557_celticvoyager.all.mb56.gz 237.81MB Simrad multibeam vendor format
0455_20120805_154928_celticvoyager.all.mb56.gz 252.89MB Simrad multibeam vendor format
0456_20120805_162221_celticvoyager.all.mb56.gz 314.09MB Simrad multibeam vendor format
0457_20120805_171635_celticvoyager.all.mb56.gz 288.43MB Simrad multibeam vendor format
0458_20120805_175608_celticvoyager.all.mb56.gz 298.93MB Simrad multibeam vendor format
0459_20120805_183421_celticvoyager.all.mb56.gz 306.31MB Simrad multibeam vendor format
0460_20120805_191330_celticvoyager.all.mb56.gz 280.15MB Simrad multibeam vendor format
0461_20120805_195038_celticvoyager.all.mb56.gz 322.42MB Simrad multibeam vendor format
0462_20120805_203137_celticvoyager.all.mb56.gz 298.04MB Simrad multibeam vendor format
0463_20120805_211226_celticvoyager.all.mb56.gz 189.91MB Simrad multibeam vendor format
0464_20120805_215249_celticvoyager.all.mb56.gz 128.14MB Simrad multibeam vendor format
0465_20120805_221102_celticvoyager.all.mb56.gz 309.09MB Simrad multibeam vendor format
0466_20120805_225236_celticvoyager.all.mb56.gz 315.28MB Simrad multibeam vendor format
0467_20120805_233326_celticvoyager.all.mb56.gz 299.83MB Simrad multibeam vendor format
0468_20120806_001310_celticvoyager.all.mb56.gz 295.09MB Simrad multibeam vendor format
0469_20120806_005158_celticvoyager.all.mb56.gz 298.42MB Simrad multibeam vendor format
0470_20120806_013109_celticvoyager.all.mb56.gz 286.39MB Simrad multibeam vendor format
0471_20120806_020913_celticvoyager.all.mb56.gz 300.17MB Simrad multibeam vendor format
0472_20120806_024819_celticvoyager.all.mb56.gz 288.57MB Simrad multibeam vendor format
0473_20120806_032720_celticvoyager.all.mb56.gz 306.88MB Simrad multibeam vendor format
0474_20120806_041042_celticvoyager.all.mb56.gz 279.70MB Simrad multibeam vendor format
0475_20120806_045008_celticvoyager.all.mb56.gz 301.28MB Simrad multibeam vendor format
0476_20120806_053221_celticvoyager.all.mb56.gz 282.02MB Simrad multibeam vendor format
0477_20120806_061135_celticvoyager.all.mb56.gz 295.70MB Simrad multibeam vendor format
0478_20120806_070543_celticvoyager.all.mb56.gz 146.48MB Simrad multibeam vendor format
0479_20120806_072645_celticvoyager.all.mb56.gz 137.47MB Simrad multibeam vendor format
0480_20120806_074734_celticvoyager.all.mb56.gz 158.41MB Simrad multibeam vendor format
0481_20120806_081103_celticvoyager.all.mb56.gz 156.79MB Simrad multibeam vendor format
0482_20120806_090645_celticvoyager.all.mb56.gz 101.88MB Simrad multibeam vendor format
0483_20120806_092834_celticvoyager.all.mb56.gz 116.43MB Simrad multibeam vendor format
0484_20120806_121057_celticvoyager.all.mb56.gz 382.14MB Simrad multibeam vendor format
0485_20120806_130528_celticvoyager.all.mb56.gz 370.56MB Simrad multibeam vendor format
0486_20120806_134341_celticvoyager.all.mb56.gz 372.57MB Simrad multibeam vendor format
0487_20120806_142239_celticvoyager.all.mb56.gz 427.08MB Simrad multibeam vendor format
0488_20120806_150724_celticvoyager.all.mb56.gz 407.62MB Simrad multibeam vendor format
0489_20120806_154755_celticvoyager.all.mb56.gz 462.19MB Simrad multibeam vendor format
0490_20120806_163702_celticvoyager.all.mb56.gz 414.77MB Simrad multibeam vendor format
0491_20120806_171639_celticvoyager.all.mb56.gz 466.18MB Simrad multibeam vendor format
0492_20120806_180048_celticvoyager.all.mb56.gz 300.19MB Simrad multibeam vendor format
0493_20120806_182932_celticvoyager.all.mb56.gz 261.55MB Simrad multibeam vendor format
0493_20120806_INF_185654_celticvoyager.all.mb56.gz 15.27MB Simrad multibeam vendor format
0494_20120806_192932_celticvoyager.all.mb56.gz 290.78MB Simrad multibeam vendor format
0495_20120806_200322_celticvoyager.all.mb56.gz 311.38MB Simrad multibeam vendor format
0496_20120806_203952_celticvoyager.all.mb56.gz 249.88MB Simrad multibeam vendor format
0497_20120806_211057_celticvoyager.all.mb56.gz 258.84MB Simrad multibeam vendor format
0498_20120806_214043_celticvoyager.all.mb56.gz 221.66MB Simrad multibeam vendor format
0499_20120806_222334_celticvoyager.all.mb56.gz 229.40MB Simrad multibeam vendor format
0500_20120806_225055_celticvoyager.all.mb56.gz 173.90MB Simrad multibeam vendor format
0501_20120806_231237_celticvoyager.all.mb56.gz 177.05MB Simrad multibeam vendor format
0502_20120806_233323_celticvoyager.all.mb56.gz 154.40MB Simrad multibeam vendor format
0503_20120806_235304_celticvoyager.all.mb56.gz 158.69MB Simrad multibeam vendor format
0504_20120807_001240_celticvoyager.all.mb56.gz 150.53MB Simrad multibeam vendor format
0505_20120807_003231_celticvoyager.all.mb56.gz 149.94MB Simrad multibeam vendor format
0506_20120807_005110_celticvoyager.all.mb56.gz 151.63MB Simrad multibeam vendor format
0507_20120807_011028_celticvoyager.all.mb56.gz 146.41MB Simrad multibeam vendor format
0508_20120807_012852_celticvoyager.all.mb56.gz 152.93MB Simrad multibeam vendor format
0509_20120807_014804_celticvoyager.all.mb56.gz 157.73MB Simrad multibeam vendor format
0510_20120807_021105_celticvoyager.all.mb56.gz 125.23MB Simrad multibeam vendor format
0511_20120807_022908_celticvoyager.all.mb56.gz 103.50MB Simrad multibeam vendor format
0512_20120807_024318_celticvoyager.all.mb56.gz 79.01MB Simrad multibeam vendor format
0513_20120807_025502_celticvoyager.all.mb56.gz 60.99MB Simrad multibeam vendor format
0514_20120807_030452_celticvoyager.all.mb56.gz 32.02MB Simrad multibeam vendor format
0515_20120807_031301_celticvoyager.all.mb56.gz 97.58MB Simrad multibeam vendor format
0516_20120807_033208_celticvoyager.all.mb56.gz 100.52MB Simrad multibeam vendor format
7001_20120804_001328_celticvoyager.all.mb56.gz 483.84MB Simrad multibeam vendor format
7002_20120804_064528_celticvoyager.all.mb56.gz 171.49MB Simrad multibeam vendor format
CROSS1_20120712_113736_celticvoyager.all.mb56.gz 56.06MB Simrad multibeam vendor format
CROSS2_0048_20120713_141157_celticvoyager.all.mb56.gz 189.06MB Simrad multibeam vendor format
CrossCV0903_9001_20120716_144746_celticvoyager.all.mb56.gz 341.88MB Simrad multibeam vendor format
CrossCV0903_9002_20120716_200304_celticvoyager.all.mb56.gz 787.90MB Simrad multibeam vendor format
INF01_20120710_130847_celticvoyager.all.mb56.gz 16.12MB Simrad multibeam vendor format
INF02_20120710_131449_celticvoyager.all.mb56.gz 12.04MB Simrad multibeam vendor format
INF06_0056_20120714_145229_celticvoyager.all.mb56.gz 22.04MB Simrad multibeam vendor format
INF07_0057_20120714_150001_celticvoyager.all.mb56.gz 17.21MB Simrad multibeam vendor format
INF08_20120721_124048_celticvoyager.all.mb56.gz 28.38MB Simrad multibeam vendor format
INF09_20120721_125241_celticvoyager.all.mb56.gz 15.21MB Simrad multibeam vendor format
INF10_20120721_125936_celticvoyager.all.mb56.gz 23.08MB Simrad multibeam vendor format
INF11_20120721_152501_celticvoyager.all.mb56.gz 27.50MB Simrad multibeam vendor format
INF12_20120721_164527_celticvoyager.all.mb56.gz 19.62MB Simrad multibeam vendor format
INF13_20120721_165741_celticvoyager.all.mb56.gz 19.37MB Simrad multibeam vendor format
INF14_20120730_085146.all.mb56.gz 26.19MB Simrad multibeam vendor format
INF15_20120730_093215.all.mb56.gz 32.37MB Simrad multibeam vendor format
INF16_20120805_100050_celticvoyager.all.mb56.gz 9.23MB Simrad multibeam vendor format
INFILL03_20120713_110844_celticvoyager.all.mb56.gz 57.87MB Simrad multibeam vendor format
INFILL04_20120713_125424_celticvoyager.all.mb56.gz 21.95MB Simrad multibeam vendor format
INFILL05_20120713_202532_celticvoyager.all.mb56.gz 60.20MB Simrad multibeam vendor format
WRECK10A_20120806_083317_celticvoyager.all.mb56.gz 21.79MB Simrad multibeam vendor format
WRECK10B_20120806_084236_celticvoyager.all.mb56.gz 26.64MB Simrad multibeam vendor format
WRECK10C_20120806_085105_celticvoyager.all.mb56.gz 23.56MB Simrad multibeam vendor format
WRECK10D_20120806_085920_celticvoyager.all.mb56.gz 17.40MB Simrad multibeam vendor format
WRECK1A_20120713_120720_celticvoyager.all.mb56.gz 16.90MB Simrad multibeam vendor format
WRECK1B_20120713_121633_celticvoyager.all.mb56.gz 20.03MB Simrad multibeam vendor format
WRECK1C_20120713_122504_celticvoyager.all.mb56.gz 18.33MB Simrad multibeam vendor format
WRECK1D_20120713_123332_celticvoyager.all.mb56.gz 16.38MB Simrad multibeam vendor format
WRECK2A_20120713_132237_celticvoyager.all.mb56.gz 18.75MB Simrad multibeam vendor format
WRECK2B_20120713_132957_celticvoyager.all.mb56.gz 17.40MB Simrad multibeam vendor format
WRECK2C_20120713_133654_celticvoyager.all.mb56.gz 19.49MB Simrad multibeam vendor format
WRECK2D_20120713_134316_celticvoyager.all.mb56.gz 15.28MB Simrad multibeam vendor format
WRECK3A_20120718_133947_celticvoyager.all.mb56.gz 13.11MB Simrad multibeam vendor format
WRECK3B_20120718_134439_celticvoyager.all.mb56.gz 6.72MB Simrad multibeam vendor format
WRECK3C_20120718_135134_celticvoyager.all.mb56.gz 14.25MB Simrad multibeam vendor format
WRECK3D_20120718_140614_celticvoyager.all.mb56.gz 6.65MB Simrad multibeam vendor format
WRECK4A_20120721_061311_celticvoyager.all.mb56.gz 23.18MB Simrad multibeam vendor format
WRECK4B_20120721_062826_celticvoyager.all.mb56.gz 15.51MB Simrad multibeam vendor format
WRECK4C_20120721_064113_celticvoyager.all.mb56.gz 16.51MB Simrad multibeam vendor format
WRECK4D_20120721_065336_celticvoyager.all.mb56.gz 17.51MB Simrad multibeam vendor format
WRECK5A_20120721_071449_celticvoyager.all.mb56.gz 23.98MB Simrad multibeam vendor format
WRECK5B_20120721_072214_celticvoyager.all.mb56.gz 26.34MB Simrad multibeam vendor format
WRECK5C_20120721_073509_celticvoyager.all.mb56.gz 18.75MB Simrad multibeam vendor format
WRECK5D_20120721_074346_celticvoyager.all.mb56.gz 20.45MB Simrad multibeam vendor format
WRECK6A_20120721_082222_celticvoyager.all.mb56.gz 15.75MB Simrad multibeam vendor format
WRECK6B_20120721_083014_celticvoyager.all.mb56.gz 10.11MB Simrad multibeam vendor format
WRECK6C_20120721_083725_celticvoyager.all.mb56.gz 14.11MB Simrad multibeam vendor format
WRECK6D_20120721_084407_celticvoyager.all.mb56.gz 14.00MB Simrad multibeam vendor format
WRECK7A_20120721_101540_celticvoyager.all.mb56.gz 47.13MB Simrad multibeam vendor format
WRECK7B_20120721_103413_celticvoyager.all.mb56.gz 16.95MB Simrad multibeam vendor format
WRECK7C_20120721_104036_celticvoyager.all.mb56.gz 12.27MB Simrad multibeam vendor format
WRECK7D_20120721_104556_celticvoyager.all.mb56.gz 11.45MB Simrad multibeam vendor format
WRECK8A_20120721_110207_celticvoyager.all.mb56.gz 18.17MB Simrad multibeam vendor format
WRECK8B_20120721_111502_celticvoyager.all.mb56.gz 9.67MB Simrad multibeam vendor format
WRECK8C_20120721_112505_celticvoyager.all.mb56.gz 9.71MB Simrad multibeam vendor format
WRECK8D_20120721_113520_celticvoyager.all.mb56.gz 22.35MB Simrad multibeam vendor format
WRECK9A_20120721_132419_celticvoyager.all.mb56.gz 11.40MB Simrad multibeam vendor format
WRECK9B_20120721_133131_celticvoyager.all.mb56.gz 9.86MB Simrad multibeam vendor format
WRECK9C_20120721_133958_celticvoyager.all.mb56.gz 8.76MB Simrad multibeam vendor format
WRECK9D_20120721_134743_celticvoyager.all.mb56.gz 11.39MB Simrad multibeam vendor format

Metadata Files: 1

Files File Size Description
CV1202_Multibeam.xml NGDC created ISO metadata

Water Column Sonar Data

Water Column Sonar Data Available: WCSD Map Viewer